OK,179,23,1011,179,2014-10-01T01:40:00,0,28072781,171572
OK,179,23,1011,179,2014-10-01T01:45:00,0,28073228,171572
OK,179,23,1011,179,2014-10-01T01:50:00,0,28073676,171572
OK,179,23,1011,179,2014-10-01T01:55:00,0,28073994,171572
OK,179,23,1011,179,2014-10-01T02:00:00,0,28074443,171572
OK,179,23,1011,179,2014-10-01T02:05:00,0,28074883,171572
OK,179,23,1011,179,2014-10-01T02:10:00,0,28075332,171572
OK,179,23,1011,179,2014-10-01T02:15:00,0,28075781,171572
OK,179,23,1011,179,2014-10-01T02:20:00,0,28076164,171572
OK,168,25,1011,168,2014-10-01T02:25:00,1,28076613,171572
OK,154,27,1011,154,2014-10-01T02:30:00,2,28077062,171572
OK,140,30,1011,140,2014-10-01T02:35:00,1,28077511,171572
OK,140,30,1011,140,2014-10-01T02:40:00,0,28077914,171572
OK,181,23,1011,181,2014-10-01T02:45:00,1,28078363,171572
OK,181,23,1011,181,2014-10-01T02:50:00,1,28078808,171572
OK,165,26,1011,165,2014-10-01T02:55:00,2,28079257,171572
OK,148,29,1011,148,2014-10-01T03:00:00,1,28079699,171572
OK,148,29,1011,148,2014-10-01T03:05:00,0,28080148,171572
OK,148,29,1011,148,2014-10-01T03:10:00,0,28080482,171572
OK,171,25,1011,171,2014-10-01T03:15:00,1,28080931,171572
OK,171,25,1011,171,2014-10-01T03:20:00,1,28081380,171572
OK,171,25,1011,171,2014-10-01T03:25:00,0,28081827,171572
OK,171,25,1011,171,2014-10-01T03:30:00,0,28082276,171572
OK,171,25,1011,171,2014-10-01T03:35:00,0,28082709,171572
OK,171,25,1011,171,2014-10-01T03:40:00,0,28083141,171572
OK,171,25,1011,171,2014-10-01T03:45:00,0,28083590,171572
OK,171,25,1011,171,2014-10-01T03:50:00,0,28084039,171572
OK,171,25,1011,171,2014-10-01T03:55:00,0,28084480,171572
OK,171,25,1011,171,2014-10-01T04:00:00,0,28084905,171572
OK,171,25,1011,171,2014-10-01T04:05:00,0,28085354,171572
OK,171,25,1011,171,2014-10-01T04:10:00,0,28085799,171572
OK,178,24,1011,178,2014-10-01T04:15:00,1,28086248,171572
OK,178,24,1011,178,2014-10-01T04:20:00,1,28086690,171572
OK,137,31,1011,137,2014-10-01T04:25:00,2,28087139,171572
OK,137,31,1011,137,2014-10-01T04:30:00,2,28087584,171572
OK,155,27,1011,155,2014-10-01T04:35:00,1,28088033,171572
OK,155,27,1011,155,2014-10-01T04:40:00,0,28088457,171572
OK,155,27,1011,155,2014-10-01T04:45:00,0,28088906,171572
OK,141,30,1011,141,2014-10-01T04:50:00,1,28089336,171572
OK,141,30,1011,141,2014-10-01T04:55:00,1,28089785,171572
OK,141,30,1011,141,2014-10-01T05:00:00,0,28090234,171572
OK,141,30,1011,141,2014-10-01T05:05:00,0,28090578,171572
OK,141,30,1011,141,2014-10-01T05:10:00,0,28091027,171572
OK,141,30,1011,141,2014-10-01T05:15:00,0,28091476,171572
OK,266,16,1011,266,2014-10-01T05:20:00,1,28091893,171572
OK,237,18,1011,237,2014-10-01T05:25:00,2,28092342,171572
OK,256,16,1011,256,2014-10-01T05:30:00,2,28092786,171572
OK,305,14,1011,305,2014-10-01T05:35:00,1,28093227,171572
OK,273,15,1011,273,2014-10-01T05:40:00,2,28093658,171572
OK,304,14,1011,304,2014-10-01T05:45:00,5,28094107,171572
OK,292,14,1011,292,2014-10-01T05:50:00,5,28094518,171572
OK,222,19,1011,222,2014-10-01T05:55:00,3,28094963,171572
OK,187,22,1011,187,2014-10-01T06:00:00,2,28095410,171572
OK,174,24,1011,174,2014-10-01T06:05:00,1,28095859,171572
OK,138,31,1011,138,2014-10-01T06:10:00,2,28096272,171572
OK,138,31,1011,138,2014-10-01T06:15:00,2,28096721,171572
OK,144,29,1011,144,2014-10-01T06:20:00,1,28097155,171572
OK,152,28,1011,152,2014-10-01T06:25:00,4,28097604,171572
OK,167,25,1011,167,2014-10-01T06:30:00,2,28098053,171572
OK,148,29,1011,148,2014-10-01T06:35:00,3,28098490,171572
OK,142,30,1011,142,2014-10-01T06:40:00,2,28098934,171572
OK,148,29,1011,148,2014-10-01T06:45:00,0,28099382,171572
OK,147,29,1011,147,2014-10-01T06:50:00,1,28099725,171572
OK,159,27,1011,159,2014-10-01T06:55:00,3,28100174,171572
OK,170,25,1011,170,2014-10-01T07:00:00,3,28100481,171572
OK,170,25,1011,170,2014-10-01T07:05:00,3,28100930,171572
OK,153,28,1011,153,2014-10-01T07:10:00,2,28101301,171572
OK,170,25,1011,170,2014-10-01T07:15:00,0,28101750,171572
OK,170,25,1011,170,2014-10-01T07:20:00,0,28102186,171572
OK,170,25,1011,170,2014-10-01T07:25:00,0,28102635,171572
OK,175,24,1011,175,2014-10-01T07:30:00,1,28103063,171572
OK,158,27,1011,158,2014-10-01T07:35:00,2,28103509,171572
OK,133,32,1011,133,2014-10-01T07:40:00,3,28103954,171572
OK,133,32,1011,133,2014-10-01T07:45:00,3,28104399,171572
OK,139,30,1011,139,2014-10-01T07:50:00,1,28104840,171572
OK,157,27,1011,157,2014-10-01T07:55:00,1,28105285,171572
OK,157,27,1011,157,2014-10-01T08:00:00,2,28105725,171572
OK,165,26,1011,165,2014-10-01T08:05:00,2,28106174,171572
OK,173,24,1011,173,2014-10-01T08:10:00,1,28106611,171572
OK,173,24,1011,173,2014-10-01T08:15:00,0,28107017,171572
OK,173,24,1011,173,2014-10-01T08:20:00,0,28107449,171572
OK,173,24,1011,173,2014-10-01T08:25:00,0,28107898,171572
OK,173,24,1011,173,2014-10-01T08:30:00,0,28108337,171572
OK,156,27,1011,156,2014-10-01T08:35:00,1,28108786,171572
OK,156,27,1011,156,2014-10-01T08:40:00,1,28109214,171572
OK,183,23,1011,183,2014-10-01T08:45:00,1,28109663,171572
OK,183,23,1011,183,2014-10-01T08:50:00,1,28110006,171572
OK,183,23,1011,183,2014-10-01T08:55:00,0,28110455,171572
OK,167,25,1011,167,2014-10-01T09:00:00,1,28110878,171572
OK,171,25,1011,171,2014-10-01T09:05:00,2,28111327,171572
OK,175,24,1011,175,2014-10-01T09:10:00,1,28111756,171572
OK,175,24,1011,175,2014-10-01T09:15:00,0,28112205,171572
OK,134,32,1011,134,2014-10-01T09:20:00,1,28112546,171572
OK,134,32,1011,134,2014-10-01T09:25:00,1,28112995,171572
OK,135,31,1011,135,2014-10-01T09:30:00,1,28113419,171572
OK,168,25,1011,168,2014-10-01T09:35:00,3,28113868,171572
OK,171,25,1011,171,2014-10-01T09:40:00,2,28114300,171572
OK,175,24,1011,175,2014-10-01T09:45:00,0,28114749,171572
OK,175,24,1011,175,2014-10-01T09:50:00,0,28115103,171572
OK,148,29,1011,148,2014-10-01T10:00:00,1,28115964,171572
OK,167,25,1011,167,2014-10-01T10:05:00,2,28116413,171572
OK,185,23,1011,185,2014-10-01T10:10:00,2,28116821,171572
OK,184,23,1011,184,2014-10-01T10:15:00,1,28117270,171572
OK,184,23,1011,184,2014-10-01T10:20:00,0,28117695,171572
OK,184,23,1011,184,2014-10-01T10:25:00,0,28118144,171572
OK,184,23,1011,184,2014-10-01T10:30:00,0,28118589,171572
OK,144,29,1011,144,2014-10-01T10:35:00,1,28119036,171572
OK,144,29,1011,144,2014-10-01T10:40:00,1,28119480,171572
OK,144,29,1011,144,2014-10-01T10:45:00,0,28119928,171572
OK,144,29,1011,144,2014-10-01T10:50:00,0,28120376,171572
OK,144,29,1011,144,2014-10-01T10:55:00,0,28120825,171572
OK,179,23,1011,179,2014-10-01T11:00:00,1,28121208,171572
OK,187,22,1011,187,2014-10-01T11:05:00,2,28121657,171572
OK,195,22,1011,195,2014-10-01T11:10:00,1,28122095,171572
OK,173,24,1011,173,2014-10-01T11:15:00,1,28122544,171572
OK,173,24,1011,173,2014-10-01T11:20:00,1,28122985,171572
OK,173,24,1011,173,2014-10-01T11:25:00,0,28123434,171572
OK,173,24,1011,173,2014-10-01T11:30:00,0,28123866,171572
OK,173,24,1011,173,2014-10-01T11:35:00,0,28124315,171572
OK,173,24,1011,173,2014-10-01T11:40:00,0,28124717,171572
OK,173,24,1011,173,2014-10-01T11:45:00,0,28125166,171572
OK,154,27,1011,154,2014-10-01T11:50:00,2,28125595,171572
OK,150,28,1011,150,2014-10-01T11:55:00,4,28126044,171572
OK,144,29,1011,144,2014-10-01T12:00:00,3,28126396,171572
OK,161,26,1011,161,2014-10-01T12:10:00,1,28127294,171572
OK,152,28,1011,152,2014-10-01T12:15:00,2,28127743,171572
OK,143,30,1011,143,2014-10-01T12:20:00,1,28128171,171572
OK,157,27,1011,157,2014-10-01T12:25:00,1,28128620,171572
OK,157,27,1011,157,2014-10-01T12:30:00,1,28129055,171572
OK,172,24,1011,172,2014-10-01T12:35:00,3,28129504,171572
OK,172,24,1011,172,2014-10-01T12:40:00,3,28129938,171572
OK,169,25,1011,169,2014-10-01T12:45:00,1,28130387,171572
OK,159,27,1011,159,2014-10-01T12:50:00,2,28130815,171572
OK,150,28,1011,150,2014-10-01T12:55:00,1,28131264,171572
OK,176,24,1011,176,2014-10-01T13:00:00,1,28131701,171572
OK,176,24,1011,176,2014-10-01T13:05:00,3,28132150,171572
OK,163,26,1011,163,2014-10-01T13:10:00,1,28132588,171572
OK,163,26,1011,163,2014-10-01T13:15:00,0,28133035,171572
OK,163,26,1011,163,2014-10-01T13:20:00,0,28133473,171572
OK,163,26,1011,163,2014-10-01T13:25:00,0,28133922,171572
OK,163,26,1011,163,2014-10-01T13:30:00,0,28134361,171572
OK,163,26,1011,163,2014-10-01T13:35:00,0,28134810,171572
OK,163,26,1011,163,2014-10-01T13:40:00,0,28135229,171572
OK,163,26,1011,163,2014-10-01T13:45:00,3,28135678,171572
OK,164,26,1011,164,2014-10-01T13:50:00,3,28136115,171572
OK,176,24,1011,176,2014-10-01T13:55:00,1,28136564,171572
OK,195,22,1011,195,2014-10-01T14:00:00,1,28137004,171572
OK,195,22,1011,195,2014-10-01T14:05:00,1,28137453,171572
OK,172,24,1011,172,2014-10-01T14:10:00,2,28137887,171572
OK,172,24,1011,172,2014-10-01T14:15:00,2,28138336,171572
OK,224,19,1011,224,2014-10-01T14:20:00,1,28138764,171572
OK,162,26,1011,162,2014-10-01T14:25:00,3,28139213,171572
OK,162,26,1011,162,2014-10-01T14:30:00,3,28139624,171572
OK,156,27,1011,156,2014-10-01T14:35:00,4,28140073,171572
OK,146,29,1011,146,2014-10-01T14:40:00,3,28140515,171572
OK,158,27,1011,158,2014-10-01T14:45:00,2,28140964,171572
OK,169,25,1011,169,2014-10-01T14:50:00,3,28141390,171572
OK,168,25,1011,168,2014-10-01T14:55:00,2,28141839,171572
OK,166,25,1011,166,2014-10-01T15:00:00,1,28142267,171572
OK,166,25,1011,166,2014-10-01T15:05:00,0,28142716,171572
OK,166,25,1011,166,2014-10-01T15:10:00,0,28143143,171572
OK,166,25,1011,166,2014-10-01T15:15:00,0,28143592,171572
OK,166,25,1011,166,2014-10-01T15:20:00,0,28144040,171572
OK,166,25,1011,166,2014-10-01T15:25:00,0,28144489,171572
OK,166,25,1011,166,2014-10-01T15:30:00,0,28144910,171572
OK,166,25,1011,166,2014-10-01T15:35:00,0,28145324,171572
OK,166,25,1011,166,2014-10-01T15:40:00,0,28145773,171572
OK,139,30,1011,139,2014-10-01T15:45:00,2,28146222,171572
OK,139,30,1011,139,2014-10-01T15:50:00,2,28146671,171572
OK,158,27,1011,158,2014-10-01T15:55:00,1,28147079,171572
OK,158,27,1011,158,2014-10-01T16:00:00,0,28147523,171572
OK,158,27,1011,158,2014-10-01T16:05:00,0,28147972,171572
OK,158,27,1011,158,2014-10-01T16:10:00,0,28148373,171572
OK,158,27,1011,158,2014-10-01T16:15:00,0,28148822,171572
OK,158,27,1011,158,2014-10-01T16:20:00,0,28149261,171572
OK,158,27,1011,158,2014-10-01T16:25:00,0,28149710,171572
OK,158,27,1011,158,2014-10-01T16:30:00,0,28150136,171572
OK,158,27,1011,158,2014-10-01T16:35:00,0,28150585,171572
OK,158,27,1011,158,2014-10-01T16:40:00,0,28151003,171572
OK,158,27,1011,158,2014-10-01T16:45:00,0,28151452,171572
OK,158,27,1011,158,2014-10-01T16:50:00,0,28151901,171572
OK,148,29,1011,148,2014-10-01T17:00:00,1,28152350,171572
OK,148,29,1011,148,2014-10-01T17:05:00,1,28152796,171572
OK,148,29,1011,148,2014-10-01T17:10:00,0,28153243,171572
OK,127,33,1011,127,2014-10-01T17:15:00,1,28153692,171572
OK,127,33,1011,127,2014-10-01T17:20:00,1,28154102,171572
OK,137,31,1011,137,2014-10-01T17:25:00,1,28154551,171572
OK,138,31,1011,138,2014-10-01T17:30:00,2,28154993,171572
OK,139,30,1011,139,2014-10-01T17:35:00,1,28155441,171572
OK,139,30,1011,139,2014-10-01T17:40:00,0,28155859,171572
OK,139,30,1011,139,2014-10-01T17:45:00,0,28156308,171572
OK,141,30,1011,141,2014-10-01T17:50:00,1,28156756,171572
OK,141,30,1011,141,2014-10-01T17:55:00,0,28157195,171572
OK,141,30,1011,141,2014-10-01T18:00:00,0,28157625,171572
OK,141,30,1011,141,2014-10-01T18:05:00,0,28158073,171572
OK,141,30,1011,141,2014-10-01T18:10:00,0,28158517,171572
OK,141,30,1011,141,2014-10-01T18:15:00,0,28158963,171572
OK,141,30,1011,141,2014-10-01T18:20:00,0,28159409,171572
OK,141,30,1011,141,2014-10-01T18:25:00,0,28159744,171572
OK,141,30,1011,141,2014-10-01T18:30:00,0,28160193,171572
OK,141,30,1011,141,2014-10-01T18:35:00,0,28160642,171572
OK,126,34,1011,126,2014-10-01T18:40:00,2,28161080,171572
OK,127,33,1011,127,2014-10-01T18:45:00,3,28161529,171572
OK,139,30,1011,139,2014-10-01T18:50:00,1,28161946,171572
OK,139,30,1011,139,2014-10-01T18:55:00,0,28162395,171572
OK,139,30,1011,139,2014-10-01T19:00:00,0,28162789,171572
OK,139,30,1011,139,2014-10-01T19:05:00,0,28163228,171572
OK,139,30,1011,139,2014-10-01T19:10:00,0,28163676,171572
OK,139,30,1011,139,2014-10-01T19:15:00,0,28164125,171572
OK,139,30,1011,139,2014-10-01T19:20:00,0,28164556,171572
OK,139,30,1011,139,2014-10-01T19:25:00,0,28165005,171572
OK,139,30,1011,139,2014-10-01T19:30:00,0,28165430,171572
OK,139,30,1011,139,2014-10-01T19:35:00,0,28165878,171572
OK,139,30,1011,139,2014-10-01T19:40:00,0,28166319,171572
OK,139,30,1011,139,2014-10-01T19:45:00,0,28166681,171572
OK,139,30,1011,139,2014-10-01T19:50:00,0,28167130,171572
OK,139,30,1011,139,2014-10-01T19:55:00,0,28167559,171572
OK,139,30,1011,139,2014-10-01T20:00:00,0,28167992,171572
OK,139,30,1011,139,2014-10-01T20:05:00,0,28168441,171572
OK,139,30,1011,139,2014-10-01T20:10:00,0,28168886,171572
OK,139,30,1011,139,2014-10-01T20:15:00,0,28169335,171572
OK,139,30,1011,139,2014-10-01T20:20:00,0,28169783,171572
OK,139,30,1011,139,2014-10-01T20:25:00,0,28170209,171572
OK,139,30,1011,139,2014-10-01T20:30:00,0,28170654,171572
OK,139,30,1011,139,2014-10-01T20:35:00,0,28171102,171572
OK,139,30,1011,139,2014-10-01T20:40:00,0,28171539,171572
OK,139,30,1011,139,2014-10-01T20:45:00,0,28171985,171572
OK,139,30,1011,139,2014-10-01T20:50:00,0,28172433,171572
OK,139,30,1011,139,2014-10-01T20:55:00,0,28172879,171572
OK,139,30,1011,139,2014-10-01T21:00:00,0,28173325,171572
OK,139,30,1011,139,2014-10-01T21:05:00,0,28173774,171572
OK,139,30,1011,139,2014-10-01T21:10:00,0,28174215,171572
OK,139,30,1011,139,2014-10-01T21:15:00,0,28174664,171572
OK,139,30,1011,139,2014-10-01T21:20:00,0,28175090,171572
OK,139,30,1011,139,2014-10-01T21:25:00,0,28175486,171572
OK,139,30,1011,139,2014-10-01T21:30:00,0,28175935,171572
OK,139,30,1011,139,2014-10-01T21:35:00,0,28176384,171572
OK,139,30,1011,139,2014-10-01T21:40:00,0,28176833,171572
OK,139,30,1011,139,2014-10-01T21:45:00,0,28177189,171572
OK,139,30,1011,139,2014-10-01T21:50:00,0,28177629,171572
OK,139,30,1011,139,2014-10-01T21:55:00,0,28178075,171572
OK,139,30,1011,139,2014-10-01T22:00:00,0,28178524,171572
OK,139,30,1011,139,2014-10-01T22:05:00,0,28178971,171572
OK,139,30,1011,139,2014-10-01T22:10:00,0,28179405,171572
OK,139,30,1011,139,2014-10-01T22:15:00,0,28179848,171572
OK,139,30,1011,139,2014-10-01T22:20:00,0,28180295,171572
OK,139,30,1011,139,2014-10-01T22:25:00,0,28180693,171572
OK,139,30,1011,139,2014-10-01T22:30:00,0,28181142,171572
OK,139,30,1011,139,2014-10-01T22:35:00,0,28181566,171572
OK,139,30,1011,139,2014-10-01T22:40:00,0,28182014,171572
OK,139,30,1011,139,2014-10-01T22:45:00,0,28182461,171572
OK,140,30,1011,140,2014-10-01T22:50:00,1,28182910,171572
OK,140,30,1011,140,2014-10-01T22:55:00,0,28183327,171572
OK,140,30,1011,140,2014-10-01T23:00:00,0,28183760,171572
OK,140,30,1011,140,2014-10-01T23:05:00,0,28184205,171572
OK,140,30,1011,140,2014-10-01T23:10:00,0,28184654,171572
OK,140,30,1011,140,2014-10-01T23:15:00,0,28185089,171572
OK,140,30,1011,140,2014-10-01T23:20:00,0,28185537,171572
OK,140,30,1011,140,2014-10-01T23:25:00,0,28185968,171572
OK,140,30,1011,140,2014-10-01T23:30:00,0,28186360,171572
OK,140,30,1011,140,2014-10-01T23:40:00,0,28187207,171572
OK,140,30,1011,140,2014-10-01T23:55:00,0,28188539,171572
OK,140,30,1011,140,2014-10-02T00:05:00,0,28189424,171572
OK,140,30,1011,140,2014-10-02T00:10:00,0,28189846,171572
OK,140,30,1011,140,2014-10-02T00:15:00,0,28190295,171572
OK,140,30,1011,140,2014-10-02T00:20:00,0,28190648,171572
OK,140,30,1011,140,2014-10-02T00:30:00,0,28191546,171572
OK,140,30,1011,140,2014-10-02T00:35:00,0,28191852,171572
OK,140,30,1011,140,2014-10-02T00:45:00,0,28192734,171572
OK,140,30,1011,140,2014-10-02T00:50:00,0,28193178,171572
OK,140,30,1011,140,2014-10-02T00:55:00,0,28193545,171572
OK,140,30,1011,140,2014-10-02T01:05:00,0,28194443,171572
OK,140,30,1011,140,2014-10-02T01:10:00,0,28194892,171572
OK,140,30,1011,140,2014-10-02T01:15:00,0,28195128,171572
OK,140,30,1011,140,2014-10-02T01:25:00,0,28196026,171572
OK,140,30,1011,140,2014-10-02T01:30:00,0,28196310,171572
OK,140,30,1011,140,2014-10-02T01:35:00,0,28196759,171572
OK,140,30,1011,140,2014-10-02T01:40:00,0,28197182,171572
OK,140,30,1011,140,2014-10-02T01:45:00,0,28197631,171572
OK,140,30,1011,140,2014-10-02T01:50:00,0,28198079,171572
OK,140,30,1011,140,2014-10-02T01:55:00,0,28198527,171572
OK,140,30,1011,140,2014-10-02T02:00:00,0,28198976,171572
OK,140,30,1011,140,2014-10-02T02:05:00,0,28199348,171572
OK,140,30,1011,140,2014-10-02T02:10:00,0,28199790,171572
OK,140,30,1011,140,2014-10-02T02:15:00,0,28200232,171572
OK,140,30,1011,140,2014-10-02T02:20:00,0,28200675,171572
OK,140,30,1011,140,2014-10-02T02:25:00,0,28201124,171572
OK,140,30,1011,140,2014-10-02T02:30:00,0,28201555,171572
OK,208,20,1011,208,2014-10-02T02:45:00,0,28202453,171572
OK,208,20,1011,208,2014-10-02T02:50:00,0,28202895,171572
OK,208,20,1011,208,2014-10-02T02:55:00,0,28203343,171572
OK,180,23,1011,180,2014-10-02T03:00:00,1,28203778,171572
OK,180,23,1011,180,2014-10-02T03:10:00,0,28204227,171572
OK,180,23,1011,180,2014-10-02T03:25:00,0,28204676,171572
OK,180,23,1011,180,2014-10-02T03:30:00,0,28205125,171572
OK,180,23,1011,180,2014-10-02T03:35:00,0,28205553,171572
OK,180,23,1011,180,2014-10-02T03:40:00,0,28206000,171572
OK,180,23,1011,180,2014-10-02T03:45:00,0,28206383,171572
OK,180,23,1011,180,2014-10-02T03:55:00,0,28207281,171572
OK,180,23,1011,180,2014-10-02T04:00:00,0,28207700,171572
OK,180,23,1011,180,2014-10-02T04:05:00,0,28208149,171572
OK,180,23,1011,180,2014-10-02T04:10:00,0,28208576,171572
OK,180,23,1011,180,2014-10-02T04:15:00,0,28209025,171572
OK,180,23,1011,180,2014-10-02T04:20:00,0,28209463,171572
OK,180,23,1011,180,2014-10-02T04:25:00,0,28209912,171572
OK,178,24,1011,178,2014-10-02T04:30:00,1,28210335,171572
OK,178,24,1011,178,2014-10-02T04:35:00,1,28210784,171572
OK,178,24,1011,178,2014-10-02T04:40:00,0,28211209,171572
OK,178,24,1011,178,2014-10-02T04:45:00,0,28211653,171572
OK,178,24,1011,178,2014-10-02T04:50:00,0,28212031,171572
OK,192,22,1011,192,2014-10-02T04:55:00,3,28212480,171572
OK,192,22,1011,192,2014-10-02T05:00:00,1,28212909,171572
OK,188,22,1011,188,2014-10-02T05:05:00,1,28213358,171572
OK,188,22,1011,188,2014-10-02T05:10:00,0,28213796,171572
OK,162,26,1011,162,2014-10-02T05:15:00,1,28214245,171572
OK,162,26,1011,162,2014-10-02T05:20:00,0,28214658,171572
OK,182,23,1011,182,2014-10-02T05:25:00,0,28215107,171572
OK,182,23,1011,182,2014-10-02T05:30:00,0,28215523,171572
OK,182,23,1011,182,2014-10-02T05:35:00,0,28215972,171572
OK,292,14,1011,292,2014-10-02T05:40:00,3,28216311,171572
OK,322,13,1011,322,2014-10-02T05:45:00,1,28216751,171572
OK,322,13,1011,322,2014-10-02T05:50:00,0,28217198,171572
OK,383,11,1011,383,2014-10-02T05:55:00,3,28217647,171572
OK,432,9,1011,432,2014-10-02T06:00:00,1,28218086,171572
OK,423,10,1011,423,2014-10-02T06:05:00,2,28218535,171572
OK,380,11,1011,380,2014-10-02T06:10:00,1,28218955,171572
OK,257,16,1011,257,2014-10-02T06:15:00,6,28219404,171572
OK,195,22,1011,195,2014-10-02T06:20:00,3,28219777,171572
OK,195,22,1011,195,2014-10-02T06:25:00,3,28220226,171572
OK,151,28,1011,151,2014-10-02T06:30:00,1,28220660,171572
OK,151,28,1011,151,2014-10-02T06:35:00,1,28221109,171572
OK,176,24,1011,176,2014-10-02T06:40:00,1,28221490,171572
OK,176,24,1011,176,2014-10-02T06:45:00,1,28221776,171572
OK,176,24,1011,176,2014-10-02T07:00:00,0,28222370,171572
OK,133,32,1011,133,2014-10-02T07:05:00,1,28222819,171572
OK,139,30,1011,139,2014-10-02T07:10:00,3,28223250,171572
OK,155,27,1011,155,2014-10-02T07:15:00,2,28223685,171572
OK,139,30,1011,139,2014-10-02T07:20:00,0,28224133,171572
OK,188,22,1011,188,2014-10-02T07:25:00,1,28224488,171572
OK,188,22,1011,188,2014-10-02T07:30:00,0,28224937,171572
OK,165,26,1011,165,2014-10-02T07:35:00,3,28225386,171572
OK,165,26,1011,165,2014-10-02T07:40:00,1,28225708,171572
OK,165,26,1011,165,2014-10-02T07:50:00,0,28226598,171572
OK,165,26,1011,165,2014-10-02T07:55:00,0,28227047,171572
OK,165,26,1011,165,2014-10-02T08:00:00,0,28227462,171572
OK,165,26,1011,165,2014-10-02T08:05:00,0,28227911,171572
OK,165,26,1011,165,2014-10-02T08:10:00,0,28228270,171572
OK,128,33,1011,128,2014-10-02T08:20:00,0,28229129,171572
OK,128,33,1011,128,2014-10-02T08:25:00,0,28229578,171572
OK,128,33,1011,128,2014-10-02T08:30:00,0,28229928,171572
OK,128,33,1011,128,2014-10-02T08:35:00,0,28230377,171572
OK,128,33,1011,128,2014-10-02T08:40:00,0,28230743,171572
OK,128,33,1011,128,2014-10-02T08:45:00,0,28231191,171572
OK,150,28,1011,150,2014-10-02T08:50:00,2,28231615,171572
OK,177,24,1011,177,2014-10-02T08:55:00,1,28232064,171572
OK,163,26,1011,163,2014-10-02T09:00:00,1,28232406,171572
OK,163,26,1011,163,2014-10-02T09:10:00,0,28232855,171572
OK,173,24,1011,173,2014-10-02T09:15:00,2,28233304,171572
OK,169,25,1011,169,2014-10-02T09:20:00,1,28233728,171572
OK,169,25,1011,169,2014-10-02T09:25:00,0,28234177,171572
OK,169,25,1011,169,2014-10-02T09:30:00,0,28234510,171572
OK,190,22,1011,190,2014-10-02T09:40:00,1,28235386,171572
OK,190,22,1011,190,2014-10-02T09:45:00,0,28235835,171572
OK,190,22,1011,190,2014-10-02T09:50:00,0,28236278,171572
OK,159,27,1011,159,2014-10-02T09:55:00,2,28236725,171572
OK,159,27,1011,159,2014-10-02T10:00:00,2,28237128,171572
OK,159,27,1011,159,2014-10-02T10:05:00,0,28237576,171572
OK,159,27,1011,159,2014-10-02T10:10:00,0,28238024,171572
OK,159,27,1011,159,2014-10-02T10:15:00,0,28238471,171572
OK,159,27,1011,159,2014-10-02T10:20:00,0,28238912,171572
OK,159,27,1011,159,2014-10-02T10:25:00,0,28239361,171572
OK,159,27,1011,159,2014-10-02T10:30:00,0,28239791,171572
OK,151,28,1011,151,2014-10-02T10:35:00,2,28240240,171572
OK,167,25,1011,167,2014-10-02T10:40:00,3,28240684,171572
OK,173,24,1011,173,2014-10-02T10:45:00,2,28241133,171572
OK,180,23,1011,180,2014-10-02T10:50:00,0,28241565,171572
OK,170,25,1011,170,2014-10-02T10:55:00,3,28242013,171572
OK,173,24,1011,173,2014-10-02T11:00:00,2,28242409,171572
OK,170,25,1011,170,2014-10-02T11:05:00,0,28242858,171572
OK,139,30,1011,139,2014-10-02T11:10:00,2,28243307,171572
OK,144,29,1011,144,2014-10-02T11:15:00,1,28243632,171572
OK,197,21,1011,197,2014-10-02T11:20:00,1,28244070,171572
OK,197,21,1011,197,2014-10-02T11:25:00,0,28244499,171572
OK,197,21,1011,197,2014-10-02T11:30:00,0,28244948,171572
OK,161,26,1011,161,2014-10-02T11:35:00,1,28245397,171572
OK,161,26,1011,161,2014-10-02T11:40:00,0,28245803,171572
OK,161,26,1011,161,2014-10-02T11:45:00,0,28246252,171572
OK,169,25,1011,169,2014-10-02T11:50:00,2,28246689,171572
OK,158,27,1011,158,2014-10-02T11:55:00,1,28247138,171572
OK,165,26,1011,165,2014-10-02T12:00:00,1,28247584,171572
OK,165,26,1011,165,2014-10-02T12:05:00,1,28248014,171572
OK,165,26,1011,165,2014-10-02T12:10:00,0,28248463,171572
OK,269,15,1011,269,2014-10-02T12:15:00,1,28248910,171572
OK,269,15,1011,269,2014-10-02T12:20:00,1,28249338,171572
OK,170,25,1011,170,2014-10-02T12:25:00,1,28249782,171572
OK,170,25,1011,170,2014-10-02T12:30:00,0,28250201,171572
OK,170,25,1011,170,2014-10-02T12:35:00,0,28250599,171572
OK,179,23,1011,179,2014-10-02T13:20:00,2,28251924,171572
OK,188,22,1011,188,2014-10-02T13:30:00,0,28252508,171572
OK,188,22,1011,188,2014-10-02T13:35:00,0,28252950,171572
OK,188,22,1011,188,2014-10-02T13:40:00,0,28253367,171572
OK,164,26,1011,164,2014-10-02T13:50:00,0,28254221,171572
OK,159,27,1011,159,2014-10-02T13:55:00,1,28254542,171572
OK,178,24,1011,178,2014-10-02T14:10:00,2,28255119,171572
OK,207,20,1011,207,2014-10-02T14:15:00,3,28255568,171572
OK,214,20,1011,214,2014-10-02T14:20:00,2,28255996,171572
OK,222,19,1011,222,2014-10-02T14:25:00,0,28256445,171572
OK,277,15,1011,277,2014-10-02T14:30:00,2,28256873,171572
OK,302,14,1011,302,2014-10-02T14:35:00,4,28257322,171572
OK,317,13,1011,317,2014-10-02T14:40:00,2,28257763,171572
OK,328,13,1011,328,2014-10-02T14:45:00,1,28258211,171572
OK,328,13,1011,328,2014-10-02T14:50:00,0,28258644,171572
OK,168,25,1011,168,2014-10-02T14:55:00,2,28259090,171572